Hourly Weather Juchitlan

Today, 2 December, Wednesday

Time Temperature Precipitation Wind Pressure Humidity
00:00 +15°C° 0 mm 0 mps 647 mmHg 89%
01:00 +15°C° 0 mm 0 mps 647 mmHg 90%
02:00 +14°C° 0 mm 0 mps 647 mmHg 90%
03:00 +14°C° 0 mm 0 mps 647 mmHg 89%
04:00 +14°C° 0 mm 0 mps 646 mmHg 89%
05:00 +14°C° 0 mm 0 mps 646 mmHg 88%
06:00 +15°C° 0 mm 0 mps 647 mmHg 82%
07:00 +16°C° 0 mm 0 mps 648 mmHg 76%
08:00 +17°C° 0 mm 0 mps 649 mmHg 70%
09:00 +21°C° 0 mm 1 mps 649 mmHg 60%
10:00 +23°C° 0 mm 1 mps 649 mmHg 50%
11:00 +25°C° 0 mm 2 mps 650 mmHg 40%
12:00 +26°C° 0 mm 2 mps 649 mmHg 38%
13:00 +26°C° 0 mm 3 mps 649 mmHg 36%
14:00 +27°C° 0 mm 4 mps 648 mmHg 35%
15:00 +25°C° 0 mm 3 mps 648 mmHg 39%
16:00 +24°C° 0 mm 3 mps 648 mmHg 44%
17:00 +22°C° 0 mm 3 mps 647 mmHg 49%
18:00 +20°C° 0 mm 2 mps 647 mmHg 56%
19:00 +19°C° 0 mm 2 mps 647 mmHg 63%
20:00 +19°C° 0 mm 1 mps 648 mmHg 71%
21:00 +18°C° 0 mm 1 mps 648 mmHg 74%
22:00 +16°C° 0 mm 0 mps 648 mmHg 77%
23:00 +16°C° 0 mm 0 mps 648 mmHg 80%

Tomorrow, 3 December, Thursday

Time Temperature Precipitation Wind Pressure Humidity
00:00 +15°C° 0 mm 0 mps 647 mmHg 81%
01:00 +15°C° 0 mm 0 mps 647 mmHg 82%
02:00 +15°C° 0 mm 0 mps 646 mmHg 84%
03:00 +14°C° 0 mm 0 mps 646 mmHg 85%
04:00 +14°C° 0 mm 0 mps 646 mmHg 86%
05:00 +14°C° 0 mm 0 mps 646 mmHg 87%
06:00 +15°C° 0 mm 0 mps 647 mmHg 82%
07:00 +16°C° 0 mm 0 mps 648 mmHg 77%
08:00 +18°C° 0 mm 0 mps 648 mmHg 72%
09:00 +21°C° 0 mm 1 mps 649 mmHg 64%
10:00 +23°C° 0 mm 2 mps 649 mmHg 56%
11:00 +25°C° 0 mm 3 mps 649 mmHg 48%
12:00 +25°C° 0 mm 3 mps 649 mmHg 47%
13:00 +25°C° 0 mm 4 mps 648 mmHg 46%
14:00 +26°C° 0 mm 4 mps 648 mmHg 46%
15:00 +23°C° 0.1 mm 4 mps 648 mmHg 52%
16:00 +22°C° 0.1 mm 3 mps 647 mmHg 59%
17:00 +21°C° 0.1 mm 3 mps 647 mmHg 66%
18:00 +19°C° 0.2 mm 2 mps 647 mmHg 71%
19:00 +18°C° 0.2 mm 2 mps 647 mmHg 76%
20:00 +18°C° 0.2 mm 1 mps 648 mmHg 81%
21:00 +18°C° 0 mm 1 mps 648 mmHg 82%
22:00 +18°C° 0 mm 1 mps 648 mmHg 83%
23:00 +16°C° 0 mm 1 mps 648 mmHg 84%

Day after tomorrow, 4 December, Friday

Time Temperature Precipitation Wind Pressure Humidity
00:00 +16°C° 0 mm 1 mps 647 mmHg 85%
01:00 +16°C° 0 mm 1 mps 647 mmHg 85%
02:00 +15°C° 0 mm 0 mps 646 mmHg 86%
03:00 +14°C° 0 mm 0 mps 646 mmHg 87%
04:00 +14°C° 0 mm 0 mps 646 mmHg 87%
05:00 +14°C° 0 mm 0 mps 646 mmHg 87%
06:00 +15°C° 0.1 mm 0 mps 647 mmHg 84%
07:00 +16°C° 0.1 mm 0 mps 647 mmHg 80%
08:00 +19°C° 0.1 mm 1 mps 648 mmHg 76%
09:00 +18°C° 0.9 mm 1 mps 648 mmHg 80%
10:00 +18°C° 0.9 mm 1 mps 647 mmHg 85%
11:00 +16°C° 0.9 mm 1 mps 647 mmHg 89%
12:00 +16°C° 1.6 mm 1 mps 647 mmHg 90%
13:00 +16°C° 1.6 mm 1 mps 646 mmHg 91%
14:00 +16°C° 1.6 mm 1 mps 646 mmHg 92%
15:00 +16°C° 0.1 mm 1 mps 646 mmHg 90%
16:00 +18°C° 0.1 mm 1 mps 646 mmHg 89%
17:00 +18°C° 0.1 mm 1 mps 647 mmHg 87%
18:00 +16°C° 0 mm 1 mps 647 mmHg 89%
19:00 +16°C° 0 mm 1 mps 647 mmHg 90%
20:00 +14°C° 0 mm 0 mps 648 mmHg 92%
21:00 +14°C° 0 mm 0 mps 648 mmHg 92%
22:00 +14°C° 0 mm 0 mps 648 mmHg 92%
23:00 +14°C° 0 mm 0 mps 648 mmHg 92%

5 December, Saturday

Time Temperature Precipitation Wind Pressure Humidity
00:00 +13°C° 0 mm 0 mps 647 mmHg 92%
01:00 +13°C° 0 mm 0 mps 647 mmHg 93%
02:00 +13°C° 0 mm 0 mps 646 mmHg 93%
03:00 +13°C° 0 mm 0 mps 646 mmHg 93%
04:00 +13°C° 0 mm 0 mps 646 mmHg 93%
05:00 +13°C° 0 mm 0 mps 646 mmHg 93%
06:00 +14°C° 0 mm 0 mps 647 mmHg 88%
07:00 +15°C° 0 mm 0 mps 648 mmHg 84%
08:00 +16°C° 0 mm 0 mps 649 mmHg 80%
09:00 +18°C° 0 mm 0 mps 649 mmHg 71%
10:00 +22°C° 0 mm 1 mps 649 mmHg 63%
11:00 +24°C° 0 mm 1 mps 650 mmHg 54%
12:00 +24°C° 0 mm 1 mps 649 mmHg 50%
13:00 +25°C° 0 mm 2 mps 649 mmHg 46%
14:00 +26°C° 0 mm 2 mps 648 mmHg 42%
15:00 +25°C° 0 mm 2 mps 648 mmHg 47%
16:00 +23°C° 0 mm 2 mps 648 mmHg 53%
17:00 +21°C° 0 mm 2 mps 647 mmHg 58%
18:00 +20°C° 0 mm 2 mps 648 mmHg 66%
19:00 +20°C° 0 mm 1 mps 648 mmHg 73%
20:00 +19°C° 0 mm 1 mps 648 mmHg 80%
21:00 +18°C° 0 mm 1 mps 648 mmHg 81%
22:00 +16°C° 0 mm 0 mps 648 mmHg 81%
23:00 +16°C° 0 mm 0 mps 648 mmHg 81%

6 December, Sunday

Time Temperature Precipitation Wind Pressure Humidity
00:00 +16°C° 0.1 mm 0 mps 648 mmHg 80%
01:00 +16°C° 0.1 mm 0 mps 647 mmHg 79%
02:00 +16°C° 0.1 mm 0 mps 647 mmHg 77%
03:00 +16°C° 0.2 mm 0 mps 647 mmHg 79%
04:00 +16°C° 0.2 mm 0 mps 647 mmHg 80%
05:00 +15°C° 0.2 mm 0 mps 647 mmHg 81%
06:00 +15°C° 0.5 mm 0 mps 648 mmHg 82%
07:00 +16°C° 0.5 mm 1 mps 648 mmHg 82%
08:00 +16°C° 0.5 mm 1 mps 649 mmHg 82%
09:00 +16°C° 0.9 mm 1 mps 649 mmHg 81%
10:00 +15°C° 0.9 mm 1 mps 649 mmHg 79%
11:00 +15°C° 0.9 mm 1 mps 648 mmHg 77%
12:00 +16°C° 0.9 mm 1 mps 648 mmHg 78%
13:00 +16°C° 0.9 mm 1 mps 647 mmHg 78%
14:00 +16°C° 0.9 mm 1 mps 647 mmHg 79%
15:00 +16°C° 0.1 mm 1 mps 647 mmHg 79%
16:00 +16°C° 0.1 mm 1 mps 647 mmHg 80%
17:00 +16°C° 0.1 mm 1 mps 647 mmHg 80%
18:00 +16°C° 0 mm 1 mps 647 mmHg 82%
19:00 +15°C° 0 mm 1 mps 647 mmHg 83%
20:00 +15°C° 0 mm 1 mps 648 mmHg 84%
21:00 +15°C° 0 mm 1 mps 648 mmHg 85%
22:00 +14°C° 0 mm 1 mps 647 mmHg 85%
23:00 +14°C° 0 mm 1 mps 647 mmHg 85%

7 December, Monday

Time Temperature Precipitation Wind Pressure Humidity
00:00 +14°C° 0 mm 1 mps 647 mmHg 85%
01:00 +14°C° 0 mm 1 mps 647 mmHg 85%
02:00 +14°C° 0 mm 1 mps 646 mmHg 84%
03:00 +14°C° 0 mm 1 mps 646 mmHg 84%
04:00 +14°C° 0 mm 1 mps 646 mmHg 84%
05:00 +13°C° 0 mm 1 mps 646 mmHg 85%
06:00 +14°C° 0 mm 1 mps 647 mmHg 81%
07:00 +15°C° 0 mm 1 mps 647 mmHg 78%
08:00 +16°C° 0 mm 1 mps 648 mmHg 74%
09:00 +19°C° 0 mm 1 mps 648 mmHg 67%
10:00 +21°C° 0 mm 1 mps 649 mmHg 59%
11:00 +21°C° 0 mm 0 mps 650 mmHg 51%
12:00 +24°C° 0.1 mm 1 mps 649 mmHg 50%
13:00 +24°C° 0.1 mm 2 mps 649 mmHg 49%
14:00 +25°C° 0.1 mm 2 mps 648 mmHg 48%
15:00 +24°C° 0 mm 2 mps 648 mmHg 53%
16:00 +23°C° 0 mm 2 mps 648 mmHg 58%
17:00 +22°C° 0 mm 1 mps 648 mmHg 63%
18:00 +21°C° 0 mm 1 mps 648 mmHg 67%
19:00 +20°C° 0 mm 1 mps 648 mmHg 70%
20:00 +17°C° 0 mm 0 mps 648 mmHg 74%
21:00 +17°C° 0 mm 0 mps 648 mmHg 75%
22:00 +17°C° 0 mm 0 mps 648 mmHg 76%
23:00 +16°C° 0 mm 0 mps 648 mmHg 78%
Show more